NOAA 16 DEB

Satellite information

Favourite Embed

Satellite Type and Status

DEBRISIN ORBIT

Key statistics

Satellite NOAA 16 DEB at a glance.

Uptime

9115

Days in orbit

Revolutions

≈ 14.1

Per day

Orbit

SSO

Sun Synchronous Orbit

Inclination

98.8

Latest

Satellite identification and parameters

Extended collection of information and parameters for NOAA 16 DEB.

Object identification

Identified? True

Debris? True

Object name: NOAA 16 DEB

International designator: 2000-055CJ

Object number (NORAD): 41151

Object ID (CCSDS): 41151

Country: UNITED STATES OF AMERICA (US)

Current information (Y/N): Y

RCS size: SMALL

Orbital parameters

Period: 102.158 minutes

Inclination: 98.8101 deg

SMA: 7238.927 km

Apoapsis: 905.862 km

Periapsis: 815.721 km

RAAN: 356.6013 deg

Eccentricy: 0.0062261

Argument of periapsis: 101.2579 deg

Mean anomaly: 259.5597 deg

Mean motion: 14.09585723 rev/day

Mean motion (dot): -0.01564892 rev/day2

B* drag term: -0.94002 1/REarth

Two-line elements (TLE)

Creation date: May 2, 2025, 2:33 a.m.

Reference frame: TEME

Reference center: EARTH

Epoch: Dec. 19, 2024, 7:19 p.m. UTC

TLE line 0: 0 NOAA 16 DEB

TLE line 1: 1 41151U 00055CJ 24354.80550185 -.01564892 00000-0 -94002+0 0 9993

TLE line 2: 2 41151 98.8101 356.6013 0062261 101.2579 259.5597 14.09585723462487

Live tracking on map

Real-time ground track for satellite NOAA 16 DEB.

In-orbit conjunctions

A list of the most updated potential collisions computed for object NOAA 16 DEB.

Target Orbit TCA Probability of collision Miss distance Type
COSMOS 1275 DEB LEO 2024-09-25 21:22:54 0.0002126489 434.0 (m) DEBRIS
SL-16 R/B LEO 2024-08-14 00:33:19 0.00015387 339.0 (m) ROCKET BODY

Associated space launch

The NOAA K, L and M POES satellites begin the fifth generation of improved environmental monitoring in support of NOAA missions. The instrument payload has significant improvements and additions/deletions. The instrument changes have effected the spacecraft subsystems and data formats.

NOAA 16 DEB was lifted into orbit during the mission ‘Titan II SLV | NOAA 16’, on board a Titan II SLV space rocket.

The launch took place on Sept. 21, 2000, 10:22 a.m. from Space Launch Complex 4W.

For more information about the launch, click the button.

Launch to space Titan II SLV | NOAA 16
Titan II SLV | NOAA 16

Agency: N/A

Status: Launch Successful

Launch date: Sept. 21, 2000, 10:22 a.m. UTC

Rocket: Titan II SLV

Launch pad: Space Launch Complex 4W

Location: Vandenberg SFB, CA, USA

...

Latest news about this satellite

There are no fresh news available about this satellite. Check back as we update our databases every day.


Newsletter sign-up

Weekly statistics, charts and insights to help you stay on top of the space industry.